StationID,Date,MaxTemp,MinTemp,Precipitation,Snowfall,SnowDepth
"USC00504110","1965-07-08",,,,0.00,0.00
"USC00504110","1965-07-09",,,,0.00,0.00
"USC00504110","1965-07-10",,,,0.00,0.00
"USC00504110","1965-07-11",,,,0.00,0.00
"USC00504110","1965-07-12",,,,0.00,0.00
"USC00504110","1965-07-13",,,,0.00,0.00
"USC00504110","1965-07-14",,,84.00,0.00,0.00
"USC00504110","1965-07-15",57.02,44.96,20.00,0.00,0.00
"USC00504110","1965-07-16",59.00,,0.00,0.00,0.00
"USC00504110","1965-07-17",64.94,46.04,0.00,0.00,0.00
"USC00504110","1965-07-18",53.06,44.96,0.00,0.00,0.00
"USC00504110","1965-07-19",55.94,44.06,0.00,0.00,0.00
"USC00504110","1965-07-20",60.98,37.94,0.00,0.00,0.00
"USC00504110","1965-07-21",60.08,44.96,0.00,0.00,0.00
"USC00504110","1965-07-22",51.08,42.98,0.00,0.00,0.00
"USC00504110","1965-07-23",51.08,42.98,251.00,0.00,0.00
"USC00504110","1965-07-24",51.08,44.06,0.00,0.00,0.00
"USC00504110","1965-07-25",53.06,42.08,0.00,0.00,0.00
"USC00504110","1965-07-26",66.02,37.94,0.00,0.00,0.00
"USC00504110","1965-07-27",60.98,37.94,0.00,0.00,0.00
"USC00504110","1965-07-28",68.00,46.94,0.00,0.00,0.00
"USC00504110","1965-07-29",66.92,42.08,0.00,0.00,0.00
"USC00504110","1965-07-30",66.02,41.00,0.00,0.00,0.00
"USC00504110","1965-07-31",64.04,48.02,0.00,0.00,0.00
"USC00504110","1965-08-01",66.02,46.94,0.00,0.00,0.00
"USC00504110","1965-08-02",66.92,48.02,0.00,0.00,0.00
"USC00504110","1965-08-03",66.02,46.04,0.00,0.00,0.00
"USC00504110","1965-08-04",64.94,46.04,0.00,0.00,0.00
"USC00504110","1965-08-05",64.94,46.04,0.00,0.00,0.00
"USC00504110","1965-08-06",64.94,44.96,0.00,0.00,0.00
"USC00504110","1965-08-07",66.92,42.08,0.00,0.00,0.00
"USC00504110","1965-08-08",66.02,48.02,0.00,0.00,0.00
"USC00504110","1965-08-09",64.94,44.96,0.00,0.00,0.00
"USC00504110","1965-08-10",64.94,46.04,0.00,0.00,0.00
"USC00504110","1965-08-11",60.08,44.96,157.00,0.00,0.00
"USC00504110","1965-08-12",57.02,44.06,28.00,0.00,0.00
"USC00504110","1965-08-13",57.02,37.04,0.00,0.00,0.00
"USC00504110","1965-08-14",55.94,44.96,0.00,0.00,0.00
"USC00504110","1965-08-15",50.00,42.98,79.00,0.00,0.00
"USC00504110","1965-08-16",51.08,44.06,74.00,0.00,0.00
"USC00504110","1965-08-17",51.08,44.96,213.00,0.00,0.00
"USC00504110","1965-08-18",59.00,44.96,13.00,0.00,0.00
"USC00504110","1965-08-19",60.98,39.02,0.00,0.00,0.00
"USC00504110","1965-08-20",62.96,46.04,0.00,0.00,0.00
"USC00504110","1965-08-21",57.02,44.06,0.00,0.00,0.00
"USC00504110","1965-08-22",64.94,37.94,0.00,0.00,0.00
"USC00504110","1965-08-23",68.00,39.92,0.00,0.00,0.00
"USC00504110","1965-08-24",60.08,44.96,28.00,0.00,0.00
"USC00504110","1965-08-25",53.06,37.04,0.00,0.00,0.00
"USC00504110","1965-08-26",53.96,37.04,33.00,0.00,0.00
"USC00504110","1965-08-27",53.06,37.04,69.00,0.00,0.00
"USC00504110","1965-08-28",55.04,44.06,13.00,0.00,0.00
"USC00504110","1965-08-29",55.04,42.98,89.00,0.00,0.00
"USC00504110","1965-08-30",57.02,44.06,935.00,0.00,0.00
"USC00504110","1965-08-31",53.96,48.92,188.00,0.00,0.00
"USC00504110","1965-09-01",53.06,44.06,10.00,0.00,0.00
"USC00504110","1965-09-02",51.98,44.06,51.00,0.00,0.00
"USC00504110","1965-09-03",53.06,41.00,0.00,0.00,0.00
"USC00504110","1965-09-04",53.96,42.08,0.00,0.00,0.00
"USC00504110","1965-09-05",53.96,35.96,0.00,0.00,0.00
"USC00504110","1965-09-06",51.08,42.98,48.00,0.00,0.00
"USC00504110","1965-09-07",51.98,42.98,89.00,0.00,0.00
"USC00504110","1965-09-08",51.08,44.06,3.00,0.00,0.00
"USC00504110","1965-09-09",55.94,33.08,0.00,0.00,0.00
"USC00504110","1965-09-10",59.00,33.98,0.00,0.00,0.00
"USC00504110","1965-09-11",59.00,35.06,0.00,0.00,0.00
"USC00504110","1965-09-12",55.04,39.02,0.00,0.00,0.00
"USC00504110","1965-09-13",55.04,35.06,0.00,0.00,0.00
"USC00504110","1965-09-14",62.96,32.00,0.00,0.00,0.00
"USC00504110","1965-09-15",64.94,35.06,0.00,0.00,0.00
"USC00504110","1965-09-16",50.00,44.06,38.00,0.00,0.00
"USC00504110","1965-09-17",48.92,42.08,53.00,0.00,0.00
"USC00504110","1965-09-18",48.92,44.06,94.00,0.00,0.00
"USC00504110","1965-09-19",51.98,46.04,43.00,0.00,0.00
"USC00504110","1965-09-20",48.92,42.98,249.00,0.00,0.00
"USC00504110","1965-09-21",50.00,44.06,28.00,0.00,0.00
"USC00504110","1965-09-22",51.08,42.98,53.00,0.00,0.00
"USC00504110","1965-09-23",55.04,48.92,0.00,0.00,0.00
"USC00504110","1965-09-24",53.06,42.98,130.00,0.00,0.00
"USC00504110","1965-09-25",51.98,35.96,0.00,0.00,0.00
"USC00504110","1965-09-26",53.06,33.08,0.00,0.00,0.00
"USC00504110","1965-09-27",53.06,35.96,53.00,0.00,0.00
"USC00504110","1965-09-28",48.92,41.00,46.00,0.00,0.00
"USC00504110","1965-09-29",46.04,35.06,,0.00,0.00
"USC00504110","1965-09-30",44.96,39.02,,0.00,0.00
"USC00504110","1966-01-01",12.02,3.02,0.00,0.00,0.00
"USC00504110","1966-01-02",12.92,-16.06,0.00,0.00,0.00
"USC00504110","1966-01-03",12.02,-2.02,0.00,0.00,0.00
"USC00504110","1966-01-04",10.04,-2.92,0.00,0.00,0.00
"USC00504110","1966-01-05",6.08,-9.94,0.00,0.00,0.00
"USC00504110","1966-01-06",3.92,-14.08,0.00,0.00,0.00
"USC00504110","1966-01-07",,,0.00,0.00,0.00
"USC00504110","1966-01-08",15.08,-4.00,0.00,0.00,0.00
"USC00504110","1966-01-09",14.00,-5.08,0.00,0.00,0.00
"USC00504110","1966-01-10",10.04,-9.04,0.00,0.00,0.00
"USC00504110","1966-01-11",12.02,-9.04,0.00,0.00,0.00
"USC00504110","1966-01-12",15.98,-5.08,15.00,25.00,25.00
"USC00504110","1966-01-13",24.08,15.08,64.00,102.00,127.00
"USC00504110","1966-01-14",24.98,6.08,13.00,13.00,127.00
"USC00504110","1966-01-15",30.02,21.92,203.00,229.00,330.00
"USC00504110","1966-01-16",33.08,28.94,338.00,165.00,457.00
"USC00504110","1966-01-17",33.08,28.04,229.00,216.00,584.00
"USC00504110","1966-01-18",30.92,12.02,0.00,0.00,584.00
"USC00504110","1966-01-19",30.92,10.94,53.00,38.00,559.00
"USC00504110","1966-01-20",26.06,19.94,97.00,112.00,635.00
"USC00504110","1966-01-21",26.06,-5.08,0.00,0.00,635.00
"USC00504110","1966-01-22",15.08,-14.08,0.00,0.00,635.00
"USC00504110","1966-01-23",10.94,-18.94,0.00,0.00,635.00
"USC00504110","1966-01-24",15.98,-2.02,0.00,0.00,635.00
"USC00504110","1966-01-25",21.92,6.08,0.00,0.00,635.00
"USC00504110","1966-01-26",24.08,6.98,0.00,0.00,610.00
"USC00504110","1966-01-27",21.02,-16.96,0.00,0.00,610.00
"USC00504110","1966-01-28",8.96,-22.00,0.00,0.00,610.00
"USC00504110","1966-01-29",10.94,-18.94,0.00,0.00,584.00
"USC00504110","1966-01-30",24.08,-5.08,33.00,51.00,533.00
"USC00504110","1966-01-31",26.06,19.04,0.00,0.00,533.00
"USC00504110","1966-02-01",33.98,17.96,13.00,0.00,508.00
"USC00504110","1966-02-02",41.00,17.96,0.00,0.00,508.00
"USC00504110","1966-02-03",37.04,21.92,0.00,0.00,508.00
"USC00504110","1966-02-04",28.94,-4.00,0.00,0.00,508.00
"USC00504110","1966-02-05",24.08,-9.94,0.00,0.00,508.00
"USC00504110","1966-02-06",24.08,-11.02,3.00,0.00,508.00
"USC00504110","1966-02-07",37.04,21.92,64.00,61.00,559.00
"USC00504110","1966-02-08",37.94,28.04,41.00,10.00,559.00
"USC00504110","1966-02-09",35.96,26.96,15.00,13.00,533.00
"USC00504110","1966-02-10",37.94,32.00,89.00,0.00,508.00
"USC00504110","1966-02-11",33.98,23.00,0.00,0.00,508.00
"USC00504110","1966-02-12",35.96,30.02,124.00,25.00,508.00
"USC00504110","1966-02-13",37.94,30.02,5.00,0.00,508.00
"USC00504110","1966-02-14",35.96,15.08,0.00,0.00,508.00
"USC00504110","1966-02-15",35.06,15.98,196.00,64.00,559.00
"USC00504110","1966-02-16",35.06,32.00,140.00,0.00,533.00
"USC00504110","1966-02-17",37.04,15.98,0.00,0.00,533.00
"USC00504110","1966-02-18",33.98,21.92,13.00,13.00,533.00
"USC00504110","1966-02-19",30.02,10.94,64.00,102.00,635.00
"USC00504110","1966-02-20",24.08,-9.04,0.00,0.00,635.00
"USC00504110","1966-02-21",42.98,3.02,0.00,0.00,559.00
"USC00504110","1966-02-22",48.92,33.98,157.00,0.00,457.00
"USC00504110","1966-02-23",51.98,35.06,13.00,0.00,381.00
"USC00504110","1966-02-24",48.02,33.08,46.00,0.00,305.00
"USC00504110","1966-02-25",42.98,30.92,0.00,0.00,279.00
"USC00504110","1966-02-26",41.00,30.92,79.00,58.00,356.00
"USC00504110","1966-02-27",39.92,24.98,23.00,0.00,330.00
"USC00504110","1966-02-28",35.06,10.04,0.00,0.00,330.00
"USC00504110","1966-03-01",33.98,6.98,0.00,0.00,254.00
"USC00504110","1966-03-02",28.94,-0.04,0.00,0.00,254.00
"USC00504110","1966-03-03",33.98,21.02,10.00,13.00,279.00
"USC00504110","1966-03-04",39.92,19.94,0.00,0.00,254.00
"USC00504110","1966-03-05",37.94,24.98,0.00,0.00,229.00
"USC00504110","1966-03-06",33.98,5.00,0.00,0.00,229.00
"USC00504110","1966-03-07",28.94,6.98,0.00,0.00,229.00
"USC00504110","1966-03-08",30.02,6.98,51.00,102.00,330.00
"USC00504110","1966-03-09",30.02,10.94,135.00,203.00,533.00
"USC00504110","1966-03-10",30.92,17.96,127.00,191.00,711.00
"USC00504110","1966-03-11",35.96,19.04,36.00,58.00,737.00
"USC00504110","1966-03-12",39.92,30.02,8.00,0.00,610.00
"USC00504110","1966-03-13",39.02,30.92,114.00,20.00,559.00
"USC00504110","1966-03-14",44.06,32.00,150.00,0.00,483.00
"USC00504110","1966-03-15",41.00,30.92,0.00,0.00,432.00
"USC00504110","1966-03-16",39.92,21.02,3.00,0.00,432.00
"USC00504110","1966-03-17",44.96,30.92,53.00,25.00,457.00
"USC00504110","1966-03-18",44.96,23.00,0.00,0.00,457.00
"USC00504110","1966-03-19",42.98,26.06,8.00,0.00,457.00
"USC00504110","1966-03-20",44.96,24.98,0.00,0.00,457.00
"USC00504110","1966-03-21",44.06,23.00,0.00,0.00,432.00
"USC00504110","1966-03-22",50.00,33.08,15.00,0.00,432.00
"USC00504110","1966-03-23",42.08,33.98,109.00,0.00,406.00
"USC00504110","1966-03-24",41.00,30.02,25.00,0.00,381.00
"USC00504110","1966-03-25",46.04,35.06,163.00,0.00,356.00
"USC00504110","1966-03-26",42.08,35.06,135.00,0.00,330.00
"USC00504110","1966-03-27",42.08,32.00,30.00,0.00,330.00
"USC00504110","1966-03-28",51.08,37.04,66.00,0.00,330.00
"USC00504110","1966-03-29",48.02,33.08,254.00,0.00,152.00
"USC00504110","1966-03-30",42.98,35.06,91.00,0.00,127.00
"USC00504110","1966-03-31",46.04,33.08,109.00,0.00,127.00
"USC00504110","1966-04-01",46.04,32.00,8.00,0.00,76.00
"USC00504110","1966-04-02",46.04,33.98,43.00,0.00,51.00
"USC00504110","1966-04-03",46.04,33.08,69.00,0.00,51.00
"USC00504110","1966-04-04",44.96,30.02,0.00,0.00,0.00
"USC00504110","1966-04-05",46.94,24.08,0.00,0.00,0.00
"USC00504110","1966-04-06",51.08,26.06,0.00,0.00,0.00
"USC00504110","1966-04-07",51.98,24.98,0.00,0.00,0.00
"USC00504110","1966-04-08",53.96,28.04,0.00,0.00,0.00
"USC00504110","1966-04-09",53.96,28.04,0.00,0.00,0.00
"USC00504110","1966-04-10",33.08,21.92,0.00,0.00,0.00
"USC00504110","1966-04-11",44.96,23.00,0.00,0.00,0.00
"USC00504110","1966-04-12",44.96,19.94,0.00,0.00,0.00
"USC00504110","1966-04-13",44.06,28.94,0.00,0.00,0.00
"USC00504110","1966-04-14",44.06,30.02,41.00,0.00,0.00
"USC00504110","1966-04-15",42.08,32.00,137.00,0.00,0.00
"USC00504110","1966-04-16",41.00,30.02,13.00,0.00,0.00
"USC00504110","1966-04-17",44.96,30.92,13.00,0.00,0.00
"USC00504110","1966-04-18",44.96,28.04,0.00,0.00,0.00
"USC00504110","1966-04-19",42.98,35.06,122.00,0.00,0.00
"USC00504110","1966-04-20",42.08,35.06,38.00,0.00,0.00
"USC00504110","1966-04-21",42.08,33.98,127.00,0.00,0.00
"USC00504110","1966-04-22",44.96,33.08,236.00,0.00,0.00
"USC00504110","1966-04-23",44.06,35.06,69.00,0.00,0.00
"USC00504110","1966-04-24",44.06,32.00,109.00,0.00,0.00
"USC00504110","1966-04-25",,,0.00,0.00,0.00
"USC00504110","1966-04-26",46.04,28.04,0.00,0.00,0.00
"USC00504110","1966-04-27",48.02,26.96,0.00,0.00,0.00
"USC00504110","1966-04-28",48.92,28.04,0.00,0.00,0.00
"USC00504110","1966-04-29",53.96,28.04,0.00,0.00,0.00
"USC00504110","1966-04-30",55.04,37.04,0.00,0.00,0.00
"USC00504110","1966-05-01",51.98,32.00,15.00,0.00,0.00
"USC00504110","1966-05-02",44.96,37.04,140.00,0.00,0.00
"USC00504110","1966-05-03",51.08,37.04,163.00,0.00,0.00
"USC00504110","1966-05-04",42.98,35.96,107.00,0.00,0.00
"USC00504110","1966-05-05",51.98,37.04,292.00,0.00,0.00
"USC00504110","1966-05-06",51.98,35.96,3.00,0.00,0.00
"USC00504110","1966-05-07",55.94,39.92,71.00,0.00,0.00
"USC00504110","1966-05-08",51.98,35.96,198.00,0.00,0.00
"USC00504110","1966-05-09",51.08,28.04,0.00,0.00,0.00
"USC00504110","1966-05-10",55.04,30.02,0.00,0.00,0.00
"USC00504110","1966-05-11",55.94,42.08,124.00,0.00,0.00
"USC00504110","1966-05-12",46.94,35.96,284.00,0.00,0.00
"USC00504110","1966-05-13",44.96,35.96,10.00,0.00,0.00
"USC00504110","1966-05-14",48.92,37.04,86.00,0.00,0.00
"USC00504110","1966-05-15",53.96,35.96,25.00,0.00,0.00
"USC00504110","1966-05-16",51.98,37.04,0.00,0.00,0.00
"USC00504110","1966-05-17",51.08,41.00,51.00,0.00,0.00
"USC00504110","1966-05-18",46.94,37.94,188.00,0.00,0.00
"USC00504110","1966-05-19",44.06,37.04,112.00,0.00,0.00
"USC00504110","1966-05-20",46.04,35.96,168.00,0.00,0.00
"USC00504110","1966-05-21",46.94,37.04,28.00,0.00,0.00
"USC00504110","1966-05-22",48.92,39.92,231.00,0.00,0.00
"USC00504110","1966-05-23",46.04,37.04,76.00,0.00,0.00
"USC00504110","1966-05-24",46.04,35.06,15.00,0.00,0.00
"USC00504110","1966-05-25",48.92,30.02,3.00,0.00,0.00
"USC00504110","1966-05-26",46.04,35.06,41.00,0.00,0.00
"USC00504110","1966-05-27",48.92,35.06,86.00,0.00,0.00
"USC00504110","1966-05-28",51.08,37.94,5.00,0.00,0.00
"USC00504110","1966-05-29",51.98,39.02,28.00,0.00,0.00
"USC00504110","1966-05-30",55.94,32.00,0.00,0.00,0.00
"USC00504110","1966-05-31",57.92,33.08,0.00,0.00,0.00
"USC00504110","1966-06-01",57.02,42.98,0.00,0.00,0.00
"USC00504110","1966-06-02",60.98,41.00,0.00,0.00,0.00
"USC00504110","1966-06-03",62.96,39.02,0.00,0.00,0.00
"USC00504110","1966-06-04",66.92,46.94,0.00,0.00,0.00
"USC00504110","1966-06-05",59.00,44.96,0.00,0.00,0.00
"USC00504110","1966-06-06",62.06,44.96,0.00,0.00,0.00
"USC00504110","1966-06-07",64.04,39.02,0.00,0.00,0.00
"USC00504110","1966-06-08",64.04,41.00,0.00,0.00,0.00
"USC00504110","1966-06-09",64.04,44.96,147.00,0.00,0.00
"USC00504110","1966-06-10",55.94,42.98,5.00,0.00,0.00
"USC00504110","1966-06-11",53.96,42.98,13.00,0.00,0.00
"USC00504110","1966-06-12",55.04,42.98,13.00,0.00,0.00
"USC00504110","1966-06-13",57.02,37.04,0.00,0.00,0.00
"USC00504110","1966-06-14",59.00,37.94,0.00,0.00,0.00
"USC00504110","1966-06-15",60.08,39.92,8.00,0.00,0.00
"USC00504110","1966-06-16",55.94,44.06,86.00,0.00,0.00
"USC00504110","1966-06-17",62.06,42.98,,0.00,0.00
"USC00504110","1966-06-18",,,,0.00,0.00
"USC00504110","1966-06-19",51.98,35.06,0.00,0.00,0.00
"USC00504110","1966-06-20",55.04,42.08,3.00,0.00,0.00
"USC00504110","1966-06-21",57.02,33.98,0.00,0.00,0.00
"USC00504110","1966-06-22",57.92,39.92,0.00,0.00,0.00
"USC00504110","1966-06-23",62.06,44.96,0.00,0.00,0.00
"USC00504110","1966-06-24",50.00,44.06,0.00,0.00,0.00
"USC00504110","1966-06-25",57.02,41.00,0.00,0.00,0.00
"USC00504110","1966-06-26",57.02,39.92,15.00,0.00,0.00
"USC00504110","1966-06-27",55.94,42.98,114.00,0.00,0.00
"USC00504110","1966-06-28",64.04,35.06,0.00,0.00,0.00
"USC00504110","1966-06-29",,,0.00,0.00,0.00
"USC00504110","1966-06-30",53.06,44.06,8.00,0.00,0.00
"USC00504110","1966-07-01",59.00,46.04,0.00,0.00,0.00
"USC00504110","1966-07-02",59.00,46.04,8.00,0.00,0.00
"USC00504110","1966-07-03",57.02,44.06,3.00,0.00,0.00
"USC00504110","1966-07-04",53.06,44.96,0.00,0.00,0.00
"USC00504110","1966-07-05",55.04,41.00,0.00,0.00,0.00
"USC00504110","1966-07-06",,,0.00,0.00,0.00
"USC00504110","1966-07-07",57.02,,0.00,0.00,0.00
"USC00504110","1966-07-08",53.06,44.96,0.00,0.00,0.00
"USC00504110","1966-07-09",51.98,42.98,66.00,0.00,0.00
"USC00504110","1966-07-10",59.00,37.94,0.00,0.00,0.00
"USC00504110","1966-07-11",59.00,41.00,0.00,0.00,0.00
"USC00504110","1966-07-12",,,0.00,0.00,0.00
"USC00504110","1966-07-13",59.00,44.06,0.00,0.00,0.00
"USC00504110","1966-07-14",64.04,44.96,0.00,0.00,0.00
"USC00504110","1966-07-15",69.98,48.92,0.00,0.00,0.00
"USC00504110","1966-07-16",66.92,48.92,0.00,0.00,0.00
"USC00504110","1966-07-17",66.02,48.02,5.00,0.00,0.00
"USC00504110","1966-07-18",69.98,46.94,0.00,0.00,0.00
"USC00504110","1966-07-19",51.98,46.04,76.00,0.00,0.00
"USC00504110","1966-07-20",55.94,44.96,18.00,0.00,0.00
"USC00504110","1966-07-21",55.94,46.04,0.00,0.00,0.00
"USC00504110","1966-07-22",60.98,46.94,0.00,0.00,0.00
"USC00504110","1966-07-23",69.08,44.06,0.00,0.00,0.00
"USC00504110","1966-07-24",71.06,46.04,0.00,0.00,0.00
"USC00504110","1966-07-25",69.08,46.04,0.00,0.00,0.00
"USC00504110","1966-07-26",69.98,46.94,0.00,0.00,0.00
"USC00504110","1966-07-27",55.94,44.96,145.00,0.00,0.00
"USC00504110","1966-07-28",50.00,44.06,274.00,0.00,0.00
"USC00504110","1966-07-29",48.92,46.94,163.00,0.00,0.00
"USC00504110","1966-07-30",51.98,42.98,135.00,0.00,0.00
"USC00504110","1966-07-31",59.00,44.06,132.00,0.00,0.00
"USC00504110","1966-08-01",57.92,44.96,28.00,0.00,0.00
"USC00504110","1966-08-02",53.06,44.06,140.00,0.00,0.00
"USC00504110","1966-08-03",53.06,42.98,30.00,0.00,0.00
"USC00504110","1966-08-04",53.06,42.08,0.00,0.00,0.00
"USC00504110","1966-08-05",60.98,35.96,0.00,0.00,0.00
"USC00504110","1966-08-06",64.04,42.98,0.00,0.00,0.00
"USC00504110","1966-08-07",66.02,46.94,0.00,0.00,0.00
"USC00504110","1966-08-08",60.08,46.04,30.00,0.00,0.00
"USC00504110","1966-08-09",60.08,41.00,292.00,0.00,0.00
"USC00504110","1966-08-10",48.92,42.08,20.00,0.00,0.00
"USC00504110","1966-08-11",48.92,42.08,56.00,0.00,0.00
"USC00504110","1966-08-12",55.04,42.98,0.00,0.00,0.00
"USC00504110","1966-08-13",55.94,37.04,0.00,0.00,0.00
"USC00504110","1966-08-14",53.06,44.06,414.00,0.00,0.00
"USC00504110","1966-08-15",50.00,42.98,51.00,0.00,0.00
"USC00504110","1966-08-16",50.00,42.98,81.00,0.00,0.00
"USC00504110","1966-08-17",48.92,42.98,208.00,0.00,0.00
"USC00504110","1966-08-18",53.06,44.06,74.00,0.00,0.00
"USC00504110","1966-08-19",55.04,42.98,51.00,0.00,0.00
"USC00504110","1966-08-20",51.98,44.06,211.00,0.00,0.00
"USC00504110","1966-08-21",51.98,42.08,5.00,0.00,0.00
"USC00504110","1966-08-22",,,,0.00,0.00
"USC00504110","1966-08-23",51.98,37.94,,0.00,0.00
"USC00504110","1966-08-24",53.06,37.94,318.00,0.00,0.00
"USC00504110","1966-08-25",48.02,42.98,0.00,0.00,0.00
"USC00504110","1966-08-26",64.04,37.04,0.00,0.00,0.00
"USC00504110","1966-08-27",68.00,46.04,0.00,0.00,0.00
"USC00504110","1966-08-28",66.92,46.94,3.00,0.00,0.00
"USC00504110","1966-08-29",50.00,46.04,5.00,0.00,0.00
"USC00504110","1966-08-30",48.92,42.98,79.00,0.00,0.00
"USC00504110","1966-08-31",,,0.00,0.00,0.00
"USC00504110","1966-09-01",,,,0.00,0.00
"USC00504110","1966-09-02",51.08,41.00,,0.00,0.00
"USC00504110","1966-09-03",46.04,37.04,38.00,0.00,0.00
"USC00504110","1966-09-04",55.04,39.92,648.00,0.00,0.00
"USC00504110","1966-09-05",53.06,42.98,74.00,0.00,0.00
"USC00504110","1966-09-06",50.00,39.92,43.00,0.00,0.00
"USC00504110","1966-09-07",48.02,,102.00,0.00,0.00
"USC00504110","1966-09-08",60.98,33.08,0.00,0.00,0.00
"USC00504110","1966-09-09",60.98,42.08,33.00,0.00,0.00
"USC00504110","1966-09-10",50.00,41.00,0.00,0.00,0.00
"USC00504110","1966-09-11",50.00,41.00,18.00,0.00,0.00
"USC00504110","1966-09-12",51.98,42.08,170.00,0.00,0.00
"USC00504110","1966-09-13",62.06,46.04,297.00,0.00,0.00
"USC00504110","1966-09-14",57.02,41.00,0.00,0.00,0.00
"USC00504110","1966-09-15",64.94,42.98,0.00,0.00,0.00
"USC00504110","1966-09-16",59.00,44.96,33.00,0.00,0.00
"USC00504110","1966-09-17",53.06,39.92,25.00,0.00,0.00
"USC00504110","1966-09-18",57.02,41.00,3.00,0.00,0.00
"USC00504110","1966-09-19",55.94,44.96,330.00,0.00,0.00
"USC00504110","1966-09-20",55.94,35.06,28.00,0.00,0.00
"USC00504110","1966-09-21",46.94,39.92,229.00,0.00,0.00
"USC00504110","1966-09-22",51.98,33.98,25.00,0.00,0.00
"USC00504110","1966-09-23",51.98,41.00,51.00,0.00,0.00
"USC00504110","1966-09-24",46.04,41.00,152.00,0.00,0.00
"USC00504110","1966-09-25",48.02,41.00,53.00,0.00,0.00
"USC00504110","1966-09-26",,,,0.00,0.00
"USC00504110","1966-09-27",60.98,44.06,,0.00,0.00
"USC00504110","1966-09-28",53.96,41.00,208.00,0.00,0.00
"USC00504110","1966-09-29",44.96,41.00,81.00,0.00,0.00
"USC00504110","1966-09-30",55.94,41.00,330.00,0.00,0.00
"USC00504110","1966-10-01",46.04,37.94,20.00,0.00,0.00
"USC00504110","1966-10-02",46.94,39.02,43.00,0.00,0.00
"USC00504110","1966-10-03",44.96,39.92,196.00,0.00,0.00
"USC00504110","1966-10-04",57.02,44.06,368.00,0.00,0.00
"USC00504110","1966-10-05",50.00,32.00,71.00,0.00,0.00
"USC00504110","1966-10-06",,,,0.00,0.00
"USC00504110","1966-10-07",51.98,37.94,,0.00,0.00
"USC00504110","1966-10-08",48.02,39.92,279.00,0.00,0.00
"USC00504110","1966-10-09",48.02,39.02,64.00,0.00,0.00
"USC00504110","1966-10-10",44.06,37.04,173.00,0.00,0.00
"USC00504110","1966-10-11",42.08,30.92,3.00,0.00,0.00
"USC00504110","1966-10-12",42.98,26.96,0.00,0.00,0.00
"USC00504110","1966-10-13",46.04,37.94,94.00,0.00,0.00
"USC00504110","1966-10-14",42.98,37.94,99.00,0.00,0.00
"USC00504110","1966-10-15",46.94,37.94,140.00,0.00,0.00
"USC00504110","1966-10-16",46.04,39.92,213.00,0.00,0.00
"USC00504110","1966-10-17",42.98,35.96,140.00,0.00,0.00
"USC00504110","1966-10-18",44.96,35.96,114.00,0.00,0.00
"USC00504110","1966-10-19",44.96,32.00,180.00,0.00,0.00
"USC00504110","1966-10-20",37.04,26.96,15.00,0.00,0.00
"USC00504110","1966-10-21",37.94,28.04,0.00,0.00,0.00
"USC00504110","1966-10-22",42.08,32.00,13.00,0.00,0.00
"USC00504110","1966-10-23",42.08,30.02,99.00,51.00,51.00
"USC00504110","1966-10-24",37.04,21.02,3.00,0.00,51.00
"USC00504110","1966-10-25",41.00,30.02,69.00,0.00,0.00
"USC00504110","1966-10-26",41.00,21.92,0.00,0.00,0.00
"USC00504110","1966-10-27",37.94,28.94,0.00,0.00,0.00
"USC00504110","1966-10-28",37.04,26.96,18.00,25.00,25.00
"USC00504110","1966-10-29",37.04,24.98,46.00,0.00,0.00
"USC00504110","1966-10-30",,,0.00,0.00,0.00
"USC00504110","1966-10-31",39.92,30.92,178.00,0.00,0.00
"USC00504110","1966-11-01",55.94,35.96,122.00,0.00,0.00
"USC00504110","1966-11-02",42.08,33.98,28.00,0.00,0.00
"USC00504110","1966-11-03",39.92,35.06,183.00,0.00,0.00
"USC00504110","1966-11-04",50.00,39.02,371.00,0.00,0.00
"USC00504110","1966-11-05",39.92,26.06,20.00,0.00,0.00
"USC00504110","1966-11-06",35.06,28.04,0.00,0.00,0.00
"USC00504110","1966-11-07",33.98,21.02,0.00,0.00,0.00
"USC00504110","1966-11-08",33.98,28.04,102.00,51.00,51.00
"USC00504110","1966-11-09",35.06,30.02,140.00,114.00,102.00
"USC00504110","1966-11-10",33.98,12.02,0.00,0.00,102.00
"USC00504110","1966-11-11",28.94,17.06,0.00,0.00,102.00
"USC00504110","1966-11-12",28.04,17.06,0.00,0.00,102.00
"USC00504110","1966-11-13",26.96,8.96,0.00,0.00,102.00
"USC00504110","1966-11-14",23.00,12.92,0.00,0.00,102.00
"USC00504110","1966-11-15",24.98,15.08,8.00,5.00,102.00
"USC00504110","1966-11-16",24.98,10.94,0.00,0.00,102.00
"USC00504110","1966-11-17",24.08,1.04,0.00,0.00,102.00
"USC00504110","1966-11-18",24.08,12.92,135.00,216.00,330.00
"USC00504110","1966-11-19",28.94,8.96,0.00,0.00,254.00
"USC00504110","1966-11-20",30.02,19.94,0.00,0.00,254.00
"USC00504110","1966-11-21",24.08,3.02,0.00,0.00,254.00
"USC00504110","1966-11-22",28.94,17.06,76.00,51.00,305.00
"USC00504110","1966-11-23",35.06,28.94,155.00,0.00,305.00
"USC00504110","1966-11-24",39.92,33.08,320.00,0.00,203.00
"USC00504110","1966-11-25",35.06,32.00,259.00,178.00,203.00
"USC00504110","1966-11-26",35.96,32.00,94.00,0.00,152.00
"USC00504110","1966-11-27",33.98,24.98,13.00,0.00,152.00
"USC00504110","1966-11-28",26.06,8.06,0.00,0.00,152.00
"USC00504110","1966-11-29",21.02,5.00,0.00,0.00,152.00
"USC00504110","1966-11-30",37.04,6.98,0.00,0.00,127.00
"USC00504110","1966-12-01",35.06,6.08,0.00,0.00,152.00
"USC00504110","1966-12-02",32.00,19.04,0.00,0.00,152.00
"USC00504110","1966-12-03",21.02,10.94,0.00,0.00,152.00
"USC00504110","1966-12-04",24.98,3.02,0.00,0.00,152.00
"USC00504110","1966-12-05",21.02,-5.98,0.00,0.00,152.00
"USC00504110","1966-12-06",15.98,8.06,0.00,0.00,152.00
"USC00504110","1966-12-07",14.00,-0.04,0.00,0.00,152.00
"USC00504110","1966-12-08",10.94,-7.96,13.00,25.00,178.00
"USC00504110","1966-12-09",17.96,5.00,76.00,127.00,305.00
"USC00504110","1966-12-10",19.94,6.98,0.00,0.00,305.00
"USC00504110","1966-12-11",23.00,17.96,150.00,170.00,483.00